Weather reports worldwide

Advertisment
Fair Isle, United Kingdom (3008): temperature & dewpoint: 11.09.2019 12:00:00 - 17.09.2019 12:00:00 (BST)Fair Isle, United Kingdom (3008): temperature -20cm & temperature -100cm: 11.09.2019 12:00:00 - 17.09.2019 12:00:00 (BST)Fair Isle, United Kingdom (3008): wind speed & gusts: 11.09.2019 12:00:00 - 17.09.2019 12:00:00 (BST)Fair Isle, United Kingdom (3008): wind direction: 11.09.2019 12:00:00 - 17.09.2019 12:00:00 (BST)Fair Isle, United Kingdom (3008): reduced air pressure: 11.09.2019 12:00:00 - 17.09.2019 12:00:00 (BST)Fair Isle, United Kingdom (3008): visibility: 11.09.2019 12:00:00 - 17.09.2019 12:00:00 (BST)Fair Isle, United Kingdom (3008): precipitation: 11.09.2019 12:00:00 - 17.09.2019 12:00:00 (BST)
Date & Time tt [°C] td [°C] tt -20cm [°C] tt -100cm [°C] ff [km/h] ff [kn] fx [km/h] fx [kn] dd ppp [hPa] vv [km] rr [mm]
17.09.2019 12:00:00 10,6 5,7 - - 28 15 48 26 NW 1021,6 19 0,0
17.09.2019 11:00:00 10,4 6,0 - - 29 16 54 29 NW 1020,9 20 0,0
17.09.2019 10:00:00 10,3 5,0 11,7 11,7 29 16 57 31 NW 1019,7 15 0,0
17.09.2019 09:00:00 9,8 5,4 - - 29 16 55 30 NW 1018,9 17 0,0
17.09.2019 08:00:00 9,3 4,9 - - 35 19 67 36 NNW 1017,7 26 0,0
17.09.2019 07:00:00 8,7 5,4 - - 42 23 61 33 NNW 1016,5 18 0,2
17.09.2019 06:00:00 7,6 5,4 - - 41 22 74 40 NW 1015,6 5 0,4
17.09.2019 05:00:00 9,5 5,1 - - 46 25 76 41 WNW 1014,5 16 0,2
17.09.2019 04:00:00 9,3 4,6 - - 48 26 74 40 WNW 1014,5 13 0,0
17.09.2019 03:00:00 9,0 3,8 - - 42 23 80 43 WNW 1013,9 17 0,0
17.09.2019 02:00:00 9,2 4,0 - - 50 27 81 44 WNW 1013,8 12 0,0
17.09.2019 01:00:00 8,4 4,3 - - 48 26 76 41 W 1013,5 14 0,4
17.09.2019 00:00:00 8,4 4,6 - - 52 28 83 45 WNW 1013,5 7 0,2
16.09.2019 23:00:00 9,8 4,6 - - 44 24 87 47 W 1013,2 12 0,0
16.09.2019 22:00:00 9,5 2,7 - - 50 27 83 45 W 1013,3 16 0,0
16.09.2019 21:00:00 9,0 3,5 - - 42 23 76 41 W 1013,8 16 0,0
16.09.2019 20:00:00 9,7 3,7 - - 39 21 65 35 W 1013,9 15 0,0
16.09.2019 19:00:00 9,1 3,3 - - 31 17 67 36 W 1014,3 15 0,0
16.09.2019 18:00:00 10,0 3,6 - - 44 24 61 33 W 1014,1 20 0,0
16.09.2019 17:00:00 10,1 2,3 - - 48 26 68 37 W 1014,0 21 0,0
16.09.2019 16:00:00 10,7 4,5 - - 44 24 63 34 W 1013,7 25 0,0
16.09.2019 15:00:00 8,6 5,5 - - 39 21 61 33 WNW 1014,0 5 0,4
16.09.2019 14:00:00 10,9 4,5 - - 44 24 63 34 W 1013,6 25 0,0
16.09.2019 13:00:00 11,0 7,8 - - 31 17 61 33 W 1013,4 11 0,6
16.09.2019 12:00:00 11,5 8,0 - - 39 21 57 31 W 1013,2 13 0,0
16.09.2019 11:00:00 11,3 8,3 - - 37 20 59 32 W 1013,2 13 1,2
16.09.2019 10:00:00 9,8 8,1 11,9 12,0 26 14 52 28 W 1013,7 16 0,2
16.09.2019 09:00:00 10,9 8,3 - - 34 18 52 28 W 1013,6 14 0,0
16.09.2019 08:00:00 9,6 8,4 - - 37 20 54 29 WSW 1013,5 7 0,2
16.09.2019 07:00:00 10,6 7,8 - - 34 18 54 29 W 1013,7 16 0,0
16.09.2019 06:00:00 10,5 8,0 - - 35 19 50 27 WSW 1013,8 16 0,8
16.09.2019 05:00:00 8,9 6,8 - - 29 16 54 29 W 1014,7 3,9 0,4
16.09.2019 04:00:00 10,3 7,8 - - 24 13 - - W 1015,1 16 0,2
16.09.2019 03:00:00 10,6 7,5 - - 29 16 46 25 W 1015,6 18 0,2
16.09.2019 02:00:00 10,5 6,9 - - 28 15 - - W 1015,6 14 0,0
16.09.2019 01:00:00 10,1 6,9 - - 28 15 48 26 W 1016,0 17 0,0
16.09.2019 00:00:00 10,4 5,5 - - 34 18 46 25 W 1016,2 15 0,0
15.09.2019 23:00:00 10,2 5,8 - - 31 17 48 26 W 1016,3 14 0,0
15.09.2019 22:00:00 10,2 5,1 - - 31 17 57 31 WNW 1016,3 14 0,0
15.09.2019 21:00:00 10,0 3,5 - - 39 21 59 32 W 1016,0 12 0,0
15.09.2019 20:00:00 10,2 3,3 - - 42 23 61 33 W 1015,6 13 0,0
15.09.2019 19:00:00 10,4 4,8 - - 41 22 63 34 W 1015,3 10 0,0
15.09.2019 18:00:00 10,0 5,8 - - 41 22 61 33 W 1015,0 12 0,0
15.09.2019 17:00:00 10,7 4,3 - - 50 27 72 39 W 1014,5 13 0,0
15.09.2019 16:00:00 9,8 7,0 - - 46 25 76 41 W 1014,4 12 0,0
15.09.2019 15:00:00 10,8 7,2 - - 44 24 74 40 W 1013,8 9 0,0
15.09.2019 14:00:00 11,1 7,8 - - 48 26 81 44 W 1013,6 7 0,0
15.09.2019 13:00:00 11,0 7,8 - - 55 30 89 48 W 1012,5 5 0,0
15.09.2019 12:00:00 10,3 8,2 - - 61 33 91 49 W 1011,2 7 0,0
15.09.2019 11:00:00 10,4 7,5 - - 50 27 87 47 W 1009,9 5 0,0
15.09.2019 10:00:00 10,6 7,3 12,2 12,0 52 28 85 46 W 1008,7 5 0,0
15.09.2019 09:00:00 10,6 6,2 - - 54 29 107 58 W 1007,6 7 0,0
15.09.2019 08:00:00 10,4 6,5 - - 63 34 96 52 W 1006,4 6 0,0
15.09.2019 07:00:00 10,6 5,6 - - 54 29 109 59 W 1005,8 5 0,0
15.09.2019 06:00:00 10,6 4,5 - - 70 38 111 60 W 1004,6 7 0,0
15.09.2019 05:00:00 10,5 5,6 - - 68 37 109 59 W 1005,0 6 0,0
15.09.2019 04:00:00 10,4 5,0 - - 70 38 107 58 W 1004,8 6 0,0
15.09.2019 03:00:00 10,7 4,8 - - 67 36 107 58 W 1004,5 7 0,0
15.09.2019 02:00:00 10,9 5,8 - - 63 34 96 52 W 1004,4 7 0,0
15.09.2019 01:00:00 10,6 6,9 - - 61 33 100 54 W 1004,6 6 0,6
15.09.2019 00:00:00 11,4 7,9 - - 63 34 91 49 WSW 1005,0 6 0,0
14.09.2019 23:00:00 11,4 8,4 - - 54 29 94 51 WSW 1005,3 7 0,2
14.09.2019 22:00:00 12,1 8,0 - - 57 31 89 48 WSW 1005,9 4,0 0,0
14.09.2019 21:00:00 12,2 8,7 - - 57 31 80 43 WSW 1006,4 7 0,0
14.09.2019 20:00:00 12,2 8,6 - - 50 27 76 41 WSW 1006,4 7 0,0
14.09.2019 19:00:00 12,6 10,0 - - 50 27 68 37 WSW 1006,4 6 0,0
14.09.2019 18:00:00 12,9 12,0 - - 46 25 83 45 WSW 1006,7 5 1,4
14.09.2019 17:00:00 12,9 12,6 - - 44 24 67 36 SW 1006,6 4,8 0,6
14.09.2019 16:00:00 12,5 12,5 - - 48 26 68 37 SSW 1007,8 5 2,8
14.09.2019 15:00:00 12,5 11,9 - - 50 27 68 37 SSW 1008,8 3,0 0,6
14.09.2019 14:00:00 12,2 11,3 - - 48 26 68 37 SSW 1010,1 9 0,0
14.09.2019 13:00:00 11,1 10,8 - - 54 29 81 44 SSW 1011,1 3,1 0,2
14.09.2019 12:00:00 10,9 10,4 - - 54 29 76 41 S 1013,1 4,5 0,2
14.09.2019 11:00:00 9,9 9,1 - - 55 30 72 39 S 1015,2 3,8 1,4
14.09.2019 10:00:00 10,4 9,8 12,5 12,0 44 24 63 34 S 1017,7 6 2,0
14.09.2019 09:00:00 11,0 9,9 - - 35 19 54 29 S 1020,3 10 1,4
14.09.2019 08:00:00 11,5 10,2 - - 35 19 50 27 SSW 1020,9 10 0,0
14.09.2019 07:00:00 11,5 9,9 - - 26 14 - - SSW 1022,3 14 0,0
14.09.2019 06:00:00 11,4 10,4 - - 22 12 - - SW 1023,2 13 0,0
14.09.2019 05:00:00 11,5 10,3 - - 29 16 48 26 SW 1024,4 10 0,0
14.09.2019 04:00:00 11,8 10,6 - - 34 18 - - SW 1025,2 10 0,0
14.09.2019 03:00:00 11,7 10,7 - - 29 16 - - SW 1026,0 10 0,0
14.09.2019 02:00:00 11,6 10,6 - - 31 17 - - SW 1026,5 11 0,0
14.09.2019 01:00:00 11,5 10,5 - - 24 13 - - WSW 1026,8 7 0,0
14.09.2019 00:00:00 11,5 9,4 - - 26 14 - - WSW 1027,2 12 0,0
13.09.2019 23:00:00 11,3 9,8 - - 29 16 48 26 SW 1027,6 11 0,0
13.09.2019 22:00:00 11,5 9,6 - - 26 14 - - WSW 1027,7 12 0,0
13.09.2019 21:00:00 11,7 8,9 - - 31 17 50 27 W 1027,7 12 0,0
13.09.2019 20:00:00 11,5 8,6 - - 35 19 54 29 W 1027,7 11 0,0
13.09.2019 19:00:00 11,7 8,6 - - 35 19 52 28 WSW 1027,5 10 0,0
13.09.2019 18:00:00 12,3 9,5 - - 31 17 54 29 WSW 1027,1 9 0,0
13.09.2019 17:00:00 12,6 9,5 - - 34 18 54 29 WSW 1026,8 10 0,0
13.09.2019 16:00:00 12,8 8,3 - - 31 17 55 30 W 1026,7 11 0,0
13.09.2019 15:00:00 12,0 8,9 - - 34 18 55 30 WSW 1026,8 5 0,0
13.09.2019 14:00:00 12,5 9,0 - - 37 20 54 29 WSW 1026,3 10 0,0
13.09.2019 13:00:00 13,0 8,6 - - 35 19 55 30 W 1025,7 10 0,0
13.09.2019 12:00:00 12,3 8,9 - - 37 20 54 29 W 1025,0 9 0,0
13.09.2019 11:00:00 11,4 8,1 - - 41 22 59 32 WSW 1024,6 11 0,2
13.09.2019 10:00:00 10,6 8,5 12,7 12,2 44 24 76 41 W 1024,1 7 0,4
13.09.2019 09:00:00 9,9 7,6 - - 37 20 61 33 W 1023,3 8 0,2
13.09.2019 08:00:00 11,6 8,7 - - 37 20 57 31 WSW 1022,8 9 0,0
13.09.2019 07:00:00 11,4 7,4 - - 35 19 59 32 W 1022,3 11 0,0
13.09.2019 06:00:00 11,3 7,7 - - 39 21 54 29 W 1021,9 15 0,0
13.09.2019 05:00:00 11,1 8,1 - - 34 18 54 29 W 1021,5 14 0,0
13.09.2019 04:00:00 11,0 7,9 - - 31 17 52 28 W 1021,1 16 0,0
13.09.2019 03:00:00 10,8 8,1 - - 31 17 48 26 W 1020,7 15 0,0
13.09.2019 02:00:00 10,4 8,3 - - 29 16 59 32 W 1020,4 14 0,2
13.09.2019 01:00:00 11,1 8,7 - - 29 16 48 26 W 1019,7 14 0,0
13.09.2019 00:00:00 11,0 7,6 - - 29 16 50 27 W 1019,4 16 0,0
12.09.2019 23:00:00 11,3 9,0 - - 34 18 52 28 W 1019,0 11 0,4
12.09.2019 22:00:00 11,4 8,3 - - 26 14 50 27 W 1018,6 12 0,0
12.09.2019 21:00:00 11,5 8,7 - - 28 15 55 30 W 1018,0 12 0,0
12.09.2019 20:00:00 11,4 9,0 - - 28 15 48 26 W 1017,2 11 0,2
12.09.2019 19:00:00 11,8 9,3 - - 26 14 48 26 W 1016,5 11 0,0
12.09.2019 18:00:00 11,9 9,5 - - 31 17 - - W 1015,6 14 0,2
12.09.2019 17:00:00 12,0 9,8 - - 29 16 46 25 W 1015,2 14 0,0
12.09.2019 16:00:00 12,0 10,7 - - 24 13 - - W 1014,3 18 0,0
12.09.2019 15:00:00 10,8 9,0 - - 35 19 54 29 WSW 1013,7 4,6 0,2
12.09.2019 14:00:00 11,5 10,4 - - 34 18 55 30 WSW 1013,1 11 0,4
12.09.2019 13:00:00 12,3 9,9 - - 39 21 52 28 SW 1012,6 19 0,0
12.09.2019 12:00:00 10,0 8,5 - - 41 22 59 32 WSW 1012,5 19 3,6
12.09.2019 11:00:00 10,0 8,8 - - 31 17 52 28 WSW 1012,5 5 4,4
12.09.2019 10:00:00 11,8 10,3 12,7 12,2 35 19 48 26 WSW 1011,9 18 0,4
12.09.2019 09:00:00 11,2 10,1 - - 29 16 48 26 WSW 1011,3 12 0,4
12.09.2019 08:00:00 10,5 9,9 - - 34 18 50 27 WSW 1011,0 5 2,2
12.09.2019 07:00:00 11,1 9,3 - - 31 17 50 27 WSW 1010,4 12 0,0
12.09.2019 06:00:00 11,0 9,1 - - 35 19 48 26 WSW 1010,0 12 0,0
12.09.2019 05:00:00 10,8 9,5 - - 35 19 54 29 WSW 1009,8 15 0,2
12.09.2019 04:00:00 11,0 9,3 - - 34 18 61 33 WSW 1009,7 11 0,0
12.09.2019 03:00:00 10,5 9,2 - - 41 22 57 31 WSW 1009,9 4,3 0,2
12.09.2019 02:00:00 11,3 9,6 - - 39 21 57 31 WSW 1009,2 12 0,0
12.09.2019 01:00:00 10,9 9,3 - - 39 21 61 33 WSW 1008,9 20 1,0
12.09.2019 00:00:00 10,9 10,2 - - 35 19 57 31 WSW 1008,3 12 0,0
11.09.2019 23:00:00 11,6 10,3 - - 39 21 54 29 WSW 1007,5 11 0,2
11.09.2019 22:00:00 11,8 10,3 - - 34 18 50 27 WSW 1007,1 9 0,0
11.09.2019 21:00:00 11,5 10,2 - - 34 18 48 26 WSW 1006,8 9 0,0
11.09.2019 20:00:00 11,6 10,1 - - 34 18 52 28 WSW 1006,0 8 0,0
11.09.2019 19:00:00 11,7 9,8 - - 39 21 55 30 WSW 1005,0 10 0,0
11.09.2019 18:00:00 12,3 9,9 - - 39 21 55 30 WSW 1004,4 9 0,0
11.09.2019 17:00:00 12,5 10,2 - - 37 20 52 28 WSW 1003,5 9 0,0
11.09.2019 16:00:00 12,5 9,9 - - 35 19 55 30 WSW 1002,9 10 0,0
11.09.2019 15:00:00 13,3 10,0 - - 39 21 54 29 WSW 1001,9 10 0,0
11.09.2019 14:00:00 13,2 10,6 - - 35 19 57 31 WSW 1001,3 9 0,0
11.09.2019 13:00:00 13,0 10,2 - - 42 23 63 34 WSW 1000,6 10 0,0
11.09.2019 12:00:00 12,0 11,0 - - 34 18 57 31 WSW 999,7 9 0,6

tt = temperature
td = dewpoint
tt -20cm = temperature -20cm
tt -100cm = temperature -100cm
ff = wind speed
fx = gusts
dd = wind direction
ppp = reduced air pressure
vv = visibility
rr = precipitation

Next stations